KC3BHK-2 Weather Reports


Display with metric or nautical units.
time (UTC)temp
F
wind
direction
speed
MPH
gust
MPH
rain 1hr
in
rain 24hr
in
rain mn
in
humidity
%
barometer
mb
20260901053749 71 194 0.0 0.0 0.00 0.00 0.00
20260901053244 71 194 0.0 0.0 0.00 0.00 0.00
20260901052739 72 194 0.0 0.0 0.00 0.00 0.00
20260901052234 71 194 0.0 0.0 0.00 0.00 0.00
20260901051726 72 194 0.0 0.0 0.00 0.00 0.00
20260901051221 71 194 0.0 0.0 0.00 0.00 0.00
20260901050716 72 194 0.0 0.0 0.00 0.00 0.00
20260901050212 72 194 0.0 0.0 0.00 0.00 0.00
20260901045707 72 194 0.0 0.0 0.00 0.00 0.00
20260901045202 72 194 0.0 0.0 0.00 0.00 0.00
20260901044654 72 194 0.0 0.0 0.00 0.00 0.00
20260901044149 72 194 0.0 0.0 0.00 0.00 0.00
20260901043644 73 194 0.0 0.0 0.00 0.00 0.00
20260901043139 72 194 0.0 0.0 0.00 0.00 0.00
20260901042129 72 194 0.0 0.0 0.00 0.00 0.00
20260901041115 71 194 0.0 0.0 0.00 0.00 0.00
20260901040610 72 194 0.0 0.0 0.00 0.00 0.00
20260901040106 72 194 0.0 0.0 0.00 0.00 0.00
20260901035055 72 194 0.0 0.0 0.00 0.00 0.00
20260901034716 73 194 0.0 0.0 0.00 0.00 0.00
20260901034546 73 194 0.0 0.0 0.00 0.00 0.00
20260901034041 72 194 0.0 0.0 0.00 0.00 0.00
20260901033537 72 194 0.0 0.0 0.00 0.00 0.00
20260901033031 72 194 0.0 0.0 0.00 0.00 0.00
20260901032526 73 194 0.0 0.0 0.00 0.00 0.00
20260901032020 72 194 0.0 0.0 0.00 0.00 0.00
20260901031512 73 194 0.0 0.0 0.00 0.00 0.00
20260901031007 71 194 0.0 0.0 0.00 0.00 0.00
20260901030503 72 194 0.0 0.0 0.00 0.00 0.00
20260901025958 72 194 0.0 0.0 0.00 0.00 0.00
20260901025453 73 194 0.0 0.0 0.00 0.00 0.00
20260901024948 72 194 0.0 0.0 0.00 0.00 0.00
20260901024439 73 194 0.0 0.0 0.00 0.00 0.00
20260901023935 71 194 0.0 0.0 0.00 0.00 0.00
20260901022925 72 194 0.0 0.0 0.00 0.00 0.00
20260901022420 72 194 0.0 0.0 0.00 0.00 0.00
20260901021915 72 194 0.0 0.0 0.00 0.00 0.00
20260901021406 72 194 0.0 0.0 0.00 0.00 0.00
20260901020357 71 194 0.0 0.0 0.00 0.00 0.00
20260901015852 72 194 0.0 0.0 0.00 0.00 0.00
20260901015347 72 194 0.0 0.0 0.00 0.00 0.00
20260901014335 72 194 0.0 0.0 0.00 0.00 0.00
20260901013830 73 194 0.0 0.0 0.00 0.00 0.00
20260901013325 73 194 0.0 3.0 0.00 0.00 0.00
20260901012820 73 170 0.0 3.0 0.00 0.00 0.00
20260901012315 72 217 2.0 0.0 0.00 0.00 0.00
20260901011808 73 136 0.0 0.0 0.00 0.00 0.00
20260901011301 73 136 0.0 0.0 0.00 0.00 0.00
20260901010756 73 136 0.0 0.0 0.00 0.00 0.00
20260901010251 74 136 0.0 0.0 0.00 0.00 0.00
20260901005746 73 136 0.0 0.0 0.00 0.00 0.00
20260901005241 74 136 0.0 0.0 0.00 0.00 0.00
20260901004737 74 136 0.0 0.0 0.00 0.00 0.00
20260901004229 75 136 0.0 2.0 0.00 0.00 0.00
20260901003219 75 77 0.0 0.0 0.00 0.00 0.00
20260901002714 75 77 0.0 0.0 0.00 0.00 0.00
20260901002210 74 77 0.0 0.0 0.00 0.00 0.00
20260901001705 76 77 0.0 0.0 0.00 0.00 0.00
20260901001157 76 77 0.0 0.0 0.00 0.00 0.00
20260901000651 75 77 0.0 0.0 0.00 0.00 0.00
20260901000146 76 77 0.0 0.0 0.00 0.00 0.00
20260831235642 76 77 0.0 0.0 0.00 0.00 0.00
20260831235137 77 77 0.0 0.0 0.00 0.00 0.00
20260831234632 77 77 0.0 0.0 0.00 0.00 0.00
20260831234124 79 77 0.0 0.0 0.00 0.00 0.00
20260831233620 79 77 0.0 0.0 0.00 0.00 0.00
20260831232610 81 77 0.0 1.0 0.00 0.00 0.00
20260831232105 81 73 0.0 0.0 0.00 0.00 0.00
20260831231600 82 73 0.0 0.0 0.00 0.00 0.00
20260831231053 82 73 0.0 0.0 0.00 0.00 0.00
20260831230548 80 73 0.0 0.0 0.00 0.00 0.00
20260831230043 82 73 0.0 2.0 0.00 0.00 0.00
20260831225538 83 82 1.0 3.0 0.00 0.00 0.00
20260831225034 82 135 1.0 4.0 0.00 0.00 0.00
20260831224529 82 146 2.0 3.0 0.00 0.00 0.00
20260831224021 83 138 2.0 4.0 0.00 0.00 0.00
20260831223516 85 131 1.0 4.0 0.00 0.00 0.00
20260831223012 87 101 0.0 3.0 0.00 0.00 0.00
20260831222507 86 117 2.0 4.0 0.00 0.00 0.00
20260831222002 83 94 0.0 0.0 0.00 0.00 0.00
20260831221457 83 94 0.0 2.0 0.00 0.00 0.00
20260831220949 82 94 0.0 3.0 0.00 0.00 0.00
20260831220444 82 122 1.0 3.0 0.00 0.00 0.00
20260831215939 84 110 2.0 2.0 0.00 0.00 0.00
20260831215435 84 170 2.0 0.0 0.00 0.00 0.00
20260831214425 84 89 0.0 2.0 0.00 0.00 0.00
20260831213918 84 121 1.0 2.0 0.00 0.00 0.00
20260831213413 84 89 1.0 2.0 0.00 0.00 0.00
20260831212908 84 190 1.0 2.0 0.00 0.00 0.00
20260831212403 83 121 1.0 0.0 0.00 0.00 0.00
20260831211858 84 93 0.0 0.0 0.00 0.00 0.00
20260831211353 84 93 0.0 0.0 0.00 0.00 0.00
20260831210844 84 93 0.0 0.0 0.00 0.00 0.00
20260831210339 82 93 0.0 0.0 0.00 0.00 0.00
20260831205834 84 93 0.0 0.0 0.00 0.00 0.00
20260831205329 82 93 0.0 0.0 0.00 0.00 0.00
20260831204823 82 93 0.0 1.0 0.00 0.00 0.00
20260831204318 81 93 0.0 0.0 0.00 0.00 0.00
20260831203809 83 159 0.0 0.0 0.00 0.00 0.00
20260831202800 84 159 0.0 0.0 0.00 0.00 0.00
20260831202255 83 159 0.0 1.0 0.00 0.00 0.00
20260831200736 82 232 0.0 3.0 0.00 0.00 0.00
20260831200231 85 255 2.0 4.0 0.00 0.00 0.00
20260831195727 86 219 1.0 4.0 0.00 0.00 0.00
20260831194718 88 24 0.0 2.0 0.00 0.00 0.00
20260831194213 88 253 0.0 3.0 0.00 0.00 0.00
20260831193705 90 120 2.0 5.0 0.00 0.00 0.00
20260831193201 87 98 5.0 0.0 0.00 0.00 0.00
20260831192655 88 195 0.0 0.0 0.00 0.00 0.00
20260831192150 87 195 0.0 0.0 0.00 0.00 0.00
20260831191645 86 195 0.0 0.0 0.00 0.00 0.00
20260831191141 86 195 0.0 0.0 0.00 0.00 0.00
20260831190633 83 195 0.0 0.0 0.00 0.00 0.00
20260831190127 83 195 0.0 0.0 0.00 0.00 0.00
20260831185623 83 195 0.0 0.0 0.00 0.00 0.00
20260831185118 83 195 0.0 0.0 0.00 0.00 0.00
20260831184613 83 195 0.0 0.0 0.00 0.00 0.00
20260831183056 84 195 0.0 0.0 0.00 0.00 0.00
20260831182551 83 195 0.0 0.0 0.00 0.00 0.00
20260831182046 85 195 0.0 0.0 0.00 0.00 0.00
20260831181542 85 195 0.0 0.0 0.00 0.00 0.00
20260831181037 84 195 0.0 3.0 0.00 0.00 0.00
20260831180528 83 240 2.0 3.0 0.00 0.00 0.00
20260831180023 83 252 3.0 3.0 0.00 0.00 0.00
20260831175519 84 231 1.0 3.0 0.00 0.00 0.00
20260831175014 85 221 2.0 3.0 0.00 0.00 0.00
20260831174509 84 177 1.0 1.0 0.00 0.00 0.00
20260831174004 84 218 1.0 3.0 0.00 0.00 0.00
20260831173456 86 138 1.0 4.0 0.00 0.00 0.00
20260831172951 82 139 3.0 3.0 0.00 0.00 0.00
20260831172446 83 231 3.0 2.0 0.00 0.00 0.00
20260831171942 84 238 0.0 0.0 0.00 0.00 0.00
20260831171437 84 315 0.0 0.0 0.00 0.00 0.00
20260831170932 86 315 0.0 0.0 0.00 0.00 0.00
20260831170424 87 315 0.0 0.0 0.00 0.00 0.00
20260831165919 84 315 0.0 0.0 0.00 0.00 0.00
20260831165414 84 315 0.0 3.0 0.00 0.00 0.00
20260831164909 84 298 1.0 4.0 0.00 0.00 0.00
20260831164404 84 197 2.0 2.0 0.00 0.00 0.00
20260831163900 83 139 2.0 2.0 0.00 0.00 0.00
20260831163352 83 215 2.0 1.0 0.00 0.00 0.00
20260831162847 84 90 0.0 4.0 0.00 0.00 0.00
20260831162342 83 34 1.0 3.0 0.00 0.00 0.00
20260831161838 85 55 0.0 3.0 0.00 0.00 0.00
20260831161334 85 65 1.0 4.0 0.00 0.00 0.00
20260831160828 83 111 1.0 3.0 0.00 0.00 0.00
20260831160319 86 138 1.0 4.0 0.00 0.00 0.00
20260831155814 87 63 0.0 4.0 0.00 0.00 0.00
20260831155310 85 177 0.0 4.0 0.00 0.00 0.00
20260831154805 87 177 0.0 4.0 0.00 0.00 0.00
20260831154300 89 197 1.0 5.0 0.00 0.00 0.00
20260831153755 87 44 1.0 4.0 0.00 0.00 0.00
20260831152743 88 25 1.0 7.0 0.00 0.00 0.00
20260831152238 87 114 3.0 6.0 0.00 0.00 0.00
20260831151733 89 104 4.0 3.0 0.00 0.00 0.00
20260831151228 88 39 0.0 3.0 0.00 0.00 0.00
20260831150724 87 193 0.0 5.0 0.00 0.00 0.00
20260831150216 86 359 0.0 4.0 0.00 0.00 0.00
20260831145710 87 105 0.0 2.0 0.00 0.00 0.00
20260831145206 85 79 0.0 4.0 0.00 0.00 0.00
20260831144701 85 11 0.0 4.0 0.00 0.00 0.00
20260831144156 85 27 4.0 3.0 0.00 0.00 0.00
20260831143650 80 60 1.0 3.0 0.00 0.00 0.00
20260831143143 80 330 1.0 2.0 0.00 0.00 0.00
20260831142638 80 83 0.0 2.0 0.00 0.00 0.00
20260831142133 80 62 1.0 5.0 0.00 0.00 0.00
20260831141124 79 4 3.0 5.0 0.00 0.00 0.00
20260831140110 79 23 0.0 2.0 0.00 0.00 0.00
20260831135606 80 44 0.0 4.0 0.00 0.00 0.00
20260831134556 79 31 1.0 3.0 0.00 0.00 0.00
20260831134052 77 37 1.0 4.0 0.00 0.00 0.00
20260831133547 77 353 2.0 2.0 0.00 0.00 0.00
20260831132533 77 37 1.0 4.0 0.00 0.00 0.00
20260831132029 78 39 0.0 1.0 0.00 0.00 0.00
20260831131018 76 31 0.0 0.0 0.00 0.00 0.00
20260831130513 75 31 0.0 2.0 0.00 0.00 0.00
20260831130006 75 41 0.0 4.0 0.00 0.00 0.00
20260831125501 74 24 4.0 0.0 0.00 0.00 0.00
20260831124956 74 200 0.0 0.0 0.00 0.00 0.00
20260831124451 73 200 0.0 0.0 0.00 0.00 0.00
20260831123442 72 200 0.0 0.0 0.00 0.00 0.00
20260831122931 73 200 0.0 0.0 0.00 0.00 0.00
20260831122426 72 200 0.0 0.0 0.00 0.00 0.00
20260831121921 71 200 0.0 0.0 0.00 0.00 0.00
20260831121413 71 200 0.0 0.0 0.00 0.00 0.00
20260831120404 70 200 0.0 0.0 0.00 0.00 0.00
20260831115856 71 200 0.0 0.0 0.00 0.00 0.00
20260831115352 69 200 0.0 0.0 0.00 0.00 0.00
20260831114847 70 200 0.0 0.0 0.00 0.00 0.00
20260831114342 70 200 0.0 0.0 0.00 0.00 0.00
20260831113837 69 200 0.0 0.0 0.00 0.00 0.00
20260831113332 70 200 0.0 0.0 0.00 0.00 0.00
20260831112825 69 200 0.0 0.0 0.00 0.00 0.00
20260831111815 68 200 0.0 0.0 0.00 0.00 0.00
20260831111309 68 200 0.0 0.0 0.00 0.00 0.00
20260831110804 68 200 0.0 0.0 0.00 0.00 0.00
20260831110749 69 200 0.0 0.0 0.00 0.00 0.00
20260831110300 68 200 0.0 0.0 0.00 0.00 0.00
20260831105751 69 200 0.0 0.0 0.00 0.00 0.00
20260831105246 68 200 0.0 0.0 0.00 0.00 0.00
20260831104740 68 200 0.0 0.0 0.00 0.00 0.00
20260831104235 68 200 0.0 0.0 0.00 0.00 0.00
20260831103730 68 200 0.0 0.0 0.00 0.00 0.00
20260831103225 68 200 0.0 0.0 0.00 0.00 0.00
20260831102718 69 200 0.0 0.0 0.00 0.00 0.00
20260831102212 68 200 0.0 0.0 0.00 0.00 0.00
20260831101707 68 200 0.0 0.0 0.00 0.00 0.00
20260831101202 68 200 0.0 0.0 0.00 0.00 0.00
20260831100658 69 200 0.0 0.0 0.00 0.00 0.00
20260831100153 67 200 0.0 0.0 0.00 0.00 0.00
20260831095645 68 200 0.0 0.0 0.00 0.00 0.00
20260831095140 68 200 0.0 0.0 0.00 0.00 0.00
20260831094635 69 200 0.0 0.0 0.00 0.00 0.00
20260831094130 69 200 0.0 0.0 0.00 0.00 0.00
20260831093625 68 200 0.0 0.0 0.00 0.00 0.00
20260831092613 69 200 0.0 0.0 0.00 0.00 0.00
20260831092108 68 200 0.0 0.0 0.00 0.00 0.00
20260831091603 69 200 0.0 0.0 0.00 0.00 0.00
20260831091056 68 200 0.0 0.0 0.00 0.00 0.00
20260831090551 69 200 0.0 0.0 0.00 0.00 0.00
20260831090047 68 200 0.0 0.0 0.00 0.00 0.00
20260831085539 69 200 0.0 0.0 0.00 0.00 0.00
20260831085034 68 200 0.0 0.0 0.00 0.00 0.00
20260831084529 68 200 0.0 0.0 0.00 0.00 0.00
20260831084024 69 200 0.0 0.0 0.00 0.00 0.00
20260831083519 69 200 0.0 0.0 0.00 0.00 0.00
20260831083015 69 200 0.0 0.0 0.00 0.00 0.00
20260831082507 69 200 0.0 0.0 0.00 0.00 0.00
20260831082001 68 200 0.0 0.0 0.00 0.00 0.00
20260831081456 68 200 0.0 0.0 0.00 0.00 0.00
20260831080951 70 200 0.0 0.0 0.00 0.00 0.00
20260831080447 68 200 0.0 0.0 0.00 0.00 0.00
20260831075942 69 200 0.0 0.0 0.00 0.00 0.00
20260831074423 69 200 0.0 0.0 0.00 0.00 0.00
20260831073918 69 200 0.0 0.0 0.00 0.00 0.00
20260831073414 68 200 0.0 0.0 0.00 0.00 0.00
20260831072401 68 200 0.0 0.0 0.00 0.00 0.00
20260831071351 68 200 0.0 0.0 0.00 0.00 0.00
20260831070847 68 200 0.0 0.0 0.00 0.00 0.00
20260831070342 69 200 0.0 0.0 0.00 0.00 0.00
20260831065837 69 200 0.0 0.0 0.00 0.00 0.00
20260831065329 69 200 0.0 0.0 0.00 0.00 0.00
20260831064824 68 200 0.0 0.0 0.00 0.00 0.00
20260831064319 68 200 0.0 0.0 0.00 0.00 0.00
20260831063813 68 200 0.0 0.0 0.00 0.00 0.00
20260831063308 67 200 0.0 0.0 0.00 0.00 0.00
20260831062803 68 200 0.0 0.0 0.00 0.00 0.00
20260831062255 68 200 0.0 0.0 0.00 0.00 0.00
20260831061750 67 200 0.0 0.0 0.00 0.00 0.00
20260831061245 69 200 0.0 0.0 0.00 0.00 0.00
20260831060740 69 200 0.0 0.0 0.00 0.00 0.00
20260831060235 69 200 0.0 0.0 0.00 0.00 0.00
20260831055730 69 200 0.0 0.0 0.00 0.00 0.00
20260831055222 69 200 0.0 0.0 0.00 0.00 0.00
20260831054718 69 200 0.0 0.0 0.00 0.00 0.00
20260831054212 69 200 0.0 0.0 0.00 0.00 0.00